Location: Seattle
(47.6064°N, 122.3308°W)
Time: 05:39:38
(UTC-08:00)

CZ-6A DEB - Pass Details

Date: 15 December 2023
Orbit: 685 x 828 km, 98.7° (Epoch: 04 March)

Event Time Altitude Azimuth Distance (km) Brightness Sun altitude
Rises 18:01:24 0° 168° (SSE) 3,376 ? -16.5°
Maximum altitude 18:09:13 78° 256° (WSW) 859 ? -17.7°
Drops below altitude 10° 18:14:39 10° 343° (NNW) 2,433 ? -18.6°
Sets 18:17:00 0° 345° (NNW) 3,354 ? -19.0°
